RH
40 36 53 37 40 39 31 32 39 29 23 16 17 18 18 15 14 14 14 14 17 42 41 15 6 4 4 5 6 7 8 9 10 11 11 12 13 13 16 29 38 45 39
37 31 43 40 37 40 34 30 35 27 25 18 18 17 15 14 12 13 13 14 88 18 6 4 4 4 4 5 7 9 9 9 9 9 10 11 14 11 11 12 37 26 53
39 38 34 35 34 37 37 28 32 26 25 18 16 13 13 12 12 12 10 10 10 5 3 3 4 4 5 7 8 8 8 8 7 7 7 7 8 7 8 8 9 17 53
40 42 39 35 30 34 37 30 28 32 36 24 15 12 12 16 12 11 7 5 4 3 3 3 4 4 6 8 8 7 7 6 5 5 5 39 6 6 6 7 7 10 17
40 43 43 43 37 30 35 33 27 35 42 34 14 11 11 12 12 9 5 3 3 3 3 3 4 5 8 8 7 6 6 6 5 4 4 4 4 5 5 6 6 7 8
35 29 47 46 45 39 33 37 28 34 44 35 16 12 11 11 12 9 4 3 3 3 3 3 4 6 8 6 5 5 5 5 4 4 4 4 4 4 5 6 6 6 6
43 31 36 49 48 46 40 37 37 31 44 58 24 12 10 11 12 10 5 4 3 3 4 3 4 7 6 4 5 5 5 5 4 4 4 3 3 4 4 5 6 6 6
39 36 42 46 51 50 46 42 41 35 37 85 48 15 12 11 12 12 6 4 4 4 4 3 5 7 5 4 5 5 5 5 4 4 3 3 3 4 4 5 5 6 6
30 35 39 67 60 54 55 54 45 54 40 62 62 29 14 12 11 12 8 4 4 4 4 4 6 7 5 5 5 4 4 3 3 4 3 3 3 4 5 5 6 6 6
12 19 28 38 76 77 68 92 89 54 41 60 53 55 24 14 12 12 8 5 4 4 3 5 7 7 5 4 4 3 3 3 3 3 3 3 3 4 5 6 6 7 7
8 11 13 22 43 71 83 76 82 86 50 64 47 53 51 18 13 13 10 5 4 4 4 5 8 6 5 4 3 3 3 3 3 3 3 3 4 5 4 5 6 7 7
4 6 9 11 26 57 78 81 78 90 76 73 52 53 52 37 14 13 11 5 4 4 5 6 8 6 5 4 3 3 3 4 4 4 4 4 4 4 3 4 4 4 4
7 6 7 7 22 35 80 86 82 84 92 84 69 53 53 51 19 13 12 6 4 4 6 7 8 7 6 4 3 3 3 4 4 4 4 4 5 5 5 5 5 5 5
10 8 7 7 7 38 58 97 97 94 95 93 90 67 54 62 29 14 13 6 4 4 6 8 8 7 5 4 3 4 4 4 4 4 4 5 5 5 5 5 5 5 5
10 10 8 8 7 12 44 99 91 96 94 99 83 85 60 66 42 17 13 6 5 5 6 8 9 8 6 4 3 4 4 4 4 5 5 4 5 5 6 6 7 7 8
15 14 12 8 8 8 17 58 94 83 92 99 95 100 78 76 59 20 14 8 5 5 7 8 9 9 7 5 4 4 4 4 4 5 5 5 5 5 6 7 8 8 9
18 16 15 11 9 8 7 24 74 100 98 93 97 99 99 88 77 26 16 8 5 6 6 8 9 10 8 5 4 4 4 4 4 4 5 5 5 5 6 7 8 9 10
26 23 23 16 11 9 8 11 25 89 99 98 91 97 100 97 88 36 17 8 5 6 7 8 9 10 8 6 4 4 4 4 4 4 5 5 5 5 7 8 9 10 10
26 24 22 21 20 12 9 8 12 33 83 98 92 100 99 99 96 49 19 8 6 6 6 8 9 9 8 6 4 4 4 4 4 4 4 5 5 6 7 9 10 10 10
32 33 27 22 24 21 14 11 10 10 23 68 95 96 99 100 98 59 19 8 7 7 7 8 9 9 7 5 4 5 4 4 4 4 5 5 6 7 9 10 11 12 12
32 35 36 25 23 28 22 14 13 17 17 14 90 100 100 100 99 57 18 9 8 8 9 9 10 8 6 5 5 5 5 5 5 5 6 7 8 10 10 11 12 12 11
40 45 51 36 22 25 31 23 18 16 17 16 31 51 62 99 84 42 14 11 9 10 10 10 10 8 7 7 8 9 8 7 6 7 7 9 11 11 11 10 10 11 13
50 49 47 53 37 24 44 34 25 23 18 18 79 87 55 98 96 24 14 13 12 11 11 11 10 9 10 12 12 10 8 8 8 9 10 10 11 12 12 12 12 14 14
62 61 59 50 57 34 46 40 29 24 22 15 28 99 94 95 87 23 18 17 15 13 12 11 11 13 14 13 11 10 9 10 10 10 10 10 11 11 13 16 17 14 16
46 44 47 52 55 42 39 42 51 30 26 32 39 100 100 98 87 25 27 20 16 14 12 14 16 15 14 12 11 11 10 10 10 10 11 11 12 13 14 17 20 23 28
54 51 48 44 58 38 34 45 41 32 22 26 41 94 100 100 77 34 29 25 18 14 14 16 16 15 14 13 12 11 10 10 11 11 13 14 16 14 16 22 32 32 28
Wind_Speed
3 3 5 8 8 7 6 8 7 6 5 5 6 6 5 5 4 4 3 4 7 10 9 5 3 2 1 1 2 3 4 4 3 3 3 2 2 0 2 3 4 5 4
6 3 6 8 10 9 8 8 8 7 6 5 6 6 5 5 4 4 4 5 7 7 7 5 3 2 1 1 2 3 4 4 3 3 2 2 2 3 3 2 4 2 3
8 5 3 8 11 10 9 9 9 8 6 6 5 5 5 5 4 3 4 6 6 4 3 3 3 1 0 2 3 3 3 3 2 3 4 4 3 3 3 2 1 2 4
13 9 5 6 10 11 11 11 11 10 8 7 7 7 6 5 4 3 4 5 5 4 4 3 2 1 1 3 3 2 2 3 4 4 5 6 4 4 3 3 2 0 1
12 12 10 9 10 12 13 12 13 12 11 10 9 9 7 6 5 5 5 5 5 4 4 4 3 2 1 2 2 1 1 1 2 3 4 2 3 3 2 2 1 1 2
20 18 14 15 15 15 15 15 15 14 13 12 11 9 8 7 7 6 6 6 6 5 5 4 3 3 3 2 2 2 2 1 1 3 3 3 3 3 3 3 2 1 2
22 21 20 21 19 19 18 17 17 17 14 14 12 11 9 9 8 7 7 7 7 7 6 5 4 4 3 4 4 4 2 2 2 3 4 3 3 3 3 2 2 1 0
20 23 20 22 22 22 22 21 19 18 17 16 14 12 11 11 10 9 9 9 8 8 7 6 6 5 5 6 6 4 2 3 3 4 3 3 3 3 3 2 2 2 2
24 22 20 21 24 25 24 23 22 21 21 21 17 14 14 13 12 11 10 10 10 9 9 8 8 8 7 7 6 3 3 4 4 3 4 4 3 3 2 1 1 1 2
32 30 27 24 26 25 25 23 22 25 22 23 21 18 16 15 13 12 12 12 11 11 10 10 9 9 8 8 5 3 2 3 2 3 2 3 3 2 1 2 2 0 1
27 30 33 31 30 30 28 29 27 26 25 25 24 22 19 18 15 14 15 14 13 13 12 11 11 10 10 8 5 4 0 2 4 3 2 3 3 2 2 2 2 0 2
26 31 32 33 32 33 32 33 33 30 28 27 26 25 22 18 18 17 16 16 15 14 13 13 12 11 11 9 7 6 2 2 3 3 3 2 2 2 2 1 1 2 3
21 28 32 33 36 35 38 36 36 35 34 30 29 29 24 20 20 19 17 17 16 15 15 14 14 13 12 10 9 7 3 4 4 3 2 2 2 1 1 2 2 3 4
29 26 30 34 34 38 39 36 38 37 37 34 33 32 26 21 22 21 19 18 17 16 16 15 15 14 13 11 10 9 6 6 5 5 3 3 3 3 3 4 4 4 5
33 28 28 33 36 39 44 38 38 37 38 36 31 32 30 25 23 22 21 20 18 18 17 16 15 14 14 13 12 11 9 8 7 5 5 4 4 4 5 6 7 7 7
35 31 30 32 34 38 40 39 41 40 42 38 36 34 32 28 26 23 22 21 20 18 18 16 16 15 15 14 14 14 12 9 8 6 6 6 7 7 8 8 9 10 10
29 31 30 33 33 37 41 48 48 42 47 46 42 33 30 31 27 25 24 22 22 20 19 17 17 17 16 16 15 14 13 10 10 9 8 9 9 10 9 10 10 11 12
27 28 27 31 34 37 41 45 48 52 40 38 40 36 30 32 30 27 25 24 23 21 20 19 18 18 16 16 16 15 13 12 11 10 11 11 11 11 11 11 12 12 14
24 28 31 33 35 38 40 44 48 48 46 42 39 32 40 35 30 28 26 26 24 22 21 20 18 18 17 17 17 15 14 13 13 12 12 12 12 13 12 12 13 13 14
22 25 27 31 37 40 42 41 46 49 45 43 50 46 40 39 34 28 28 28 25 23 22 20 19 18 18 18 17 16 15 15 14 13 13 13 12 13 13 13 14 15 15
22 26 28 27 32 40 43 43 42 41 40 43 41 41 42 40 33 28 27 28 26 25 23 21 20 20 19 18 18 17 16 16 15 14 13 14 12 13 14 14 14 14 14
28 25 25 30 29 35 38 40 39 37 38 36 41 46 49 53 29 29 27 27 27 24 23 21 21 20 19 18 18 18 17 16 15 14 14 14 12 12 14 15 15 15 16
39 37 31 29 33 33 35 37 38 37 35 35 33 33 45 37 47 31 27 27 27 25 24 22 21 19 19 18 18 17 16 15 15 14 14 13 13 13 13 13 16 18 18
50 50 44 39 35 35 34 36 36 32 35 36 34 32 39 52 41 30 27 26 26 26 24 23 21 19 18 17 17 15 14 14 13 14 14 13 13 14 16 16 15 20 21
60 52 48 52 40 37 34 34 31 32 33 30 31 39 35 28 33 29 25 25 26 25 24 22 21 19 18 17 16 14 13 12 12 12 12 13 13 16 18 17 19 21 24
49 44 41 44 40 34 33 32 33 32 34 37 33 36 33 36 43 32 30 27 26 26 24 22 20 19 17 16 16 14 12 12 11 11 11 13 13 16 19 20 20 21 26
Wind_Direction
197 221 195 189 200 215 215 206 213 221 225 204 182 179 182 188 181 186 198 191 192 194 195 192 169 154 142 7 343 339 334 326 332 327 316 314 311 215 108 103 95 80 67
209 177 191 201 204 209 223 214 215 224 239 231 196 187 192 199 196 198 208 190 135 162 164 161 160 152 122 334 326 329 322 320 320 308 316 340 316 9 33 49 61 77 91
182 195 185 201 211 215 224 221 217 223 225 238 235 210 200 206 205 203 207 198 194 176 171 163 164 175 287 327 331 334 328 321 332 3 12 31 30 21 29 30 44 93 104
195 209 208 211 223 223 225 230 222 222 230 230 234 233 211 202 192 200 198 198 201 194 198 199 204 214 291 324 318 331 343 331 26 30 54 93 60 63 48 40 23 144 144
208 210 215 222 225 233 230 234 230 227 236 236 234 238 220 213 208 200 194 197 218 220 219 220 235 260 290 296 298 322 309 356 18 37 55 53 41 37 24 9 357 101 101
257 235 222 226 227 229 229 233 237 233 240 243 225 225 241 231 228 215 208 209 215 223 235 237 249 266 273 272 241 218 195 202 5 13 15 14 15 349 343 341 341 35 114
262 252 230 231 227 230 228 230 236 239 238 238 230 221 226 239 234 232 225 224 222 226 231 244 251 248 252 238 216 206 196 248 321 341 350 4 350 350 322 308 288 263 162
263 253 254 235 231 231 229 229 230 236 241 226 239 238 230 229 237 234 235 233 231 231 233 239 244 238 235 220 215 209 226 278 297 331 340 342 359 341 322 300 268 240 248
253 254 240 241 240 233 232 231 233 230 233 234 244 242 242 237 232 238 237 240 237 234 235 236 233 230 225 216 219 227 259 306 326 331 323 327 350 344 339 329 258 197 273
256 254 248 237 234 240 236 223 229 230 234 229 242 246 244 245 239 236 240 237 238 237 236 231 227 225 220 218 217 238 285 317 312 293 312 318 325 312 337 74 78 196 282
257 257 250 248 239 238 237 232 233 235 234 235 237 244 248 248 244 238 239 240 235 236 235 227 222 222 220 222 221 234 196 297 288 298 308 314 324 69 94 83 86 67 298
253 251 248 245 241 236 234 233 232 235 238 236 238 239 243 249 249 242 238 241 239 236 231 225 218 218 219 222 224 233 198 231 261 271 285 305 352 15 4 355 305 302 306
258 250 250 241 239 237 233 232 235 235 240 239 240 241 239 244 248 248 241 240 242 240 233 225 218 218 220 221 222 232 200 235 248 249 255 276 285 317 305 303 308 310 304
256 249 246 246 239 231 236 229 238 235 239 245 245 244 240 237 243 247 246 240 241 238 234 229 223 219 223 222 223 230 208 230 234 246 244 260 268 286 292 290 289 293 297
256 248 248 245 242 234 226 236 237 245 243 244 245 240 240 238 240 239 242 243 239 239 233 229 228 226 223 222 220 226 217 219 237 246 263 273 278 285 288 292 295 297 298
252 251 246 242 243 239 235 223 227 240 245 239 239 248 239 240 241 239 238 241 238 237 236 230 230 228 226 222 219 222 226 214 239 248 261 268 273 277 285 289 295 298 300
257 255 247 245 239 238 238 231 236 234 237 235 230 239 243 245 245 241 238 235 238 233 233 231 229 229 228 226 221 223 230 226 228 245 253 258 260 268 278 286 291 296 298
264 259 256 250 245 238 235 235 238 235 247 221 230 220 241 243 243 243 239 236 234 232 229 230 230 231 227 227 224 224 228 236 235 241 252 258 262 266 276 282 288 294 297
272 268 263 252 250 246 239 234 238 244 247 241 252 230 233 230 232 240 240 237 232 230 227 226 228 230 226 225 225 226 232 236 240 241 246 256 265 271 275 280 286 291 296
278 280 274 262 248 245 243 238 237 242 247 242 243 250 232 218 224 230 237 236 231 226 227 225 224 226 225 222 225 228 229 237 238 242 249 255 259 268 274 280 286 293 298
295 280 273 264 256 249 245 240 239 241 239 245 240 228 235 227 211 219 232 235 230 224 223 223 220 222 223 223 226 229 233 236 240 241 248 254 260 269 278 283 287 290 295
308 308 283 266 256 253 249 247 244 245 243 238 239 245 255 229 207 210 221 230 229 225 223 220 219 219 222 224 228 230 234 238 243 246 250 257 263 270 278 284 290 294 296
296 296 293 278 266 256 247 246 245 243 243 237 240 247 237 234 213 202 213 221 224 222 219 219 219 218 222 227 231 236 238 243 251 253 257 263 271 271 276 285 293 293 295
287 282 280 274 271 254 244 240 240 242 243 242 238 234 242 238 198 188 202 216 221 220 216 216 217 219 222 227 231 234 241 246 252 257 262 266 270 283 287 290 292 296 301
294 281 265 259 262 250 242 239 235 232 234 233 227 227 231 223 210 183 195 211 218 218 215 213 215 217 220 222 228 228 235 242 250 256 264 273 281 284 287 291 299 303 302
283 277 259 238 245 243 234 225 230 230 228 225 226 224 228 212 207 193 189 199 212 215 214 214 216 215 216 220 225 222 227 234 240 252 256 270 278 291 289 296 297 301 301